Temp
51 50 51 51 51 50 50 49 49 49 49 48 49 50 50 51 50 50 50 50 50 51 52 53 53 53 54 53 53 52 51 50 50 50 50 50 49 49 48 47 47 46
49 49 48 49 49 48 48 49 49 49 49 48 49 49 48 48 48 49 48 48 48 50 51 51 52 52 53 52 52 52 51 50 50 50 49 48 49 48 48 48 47 46
48 48 48 48 49 48 48 47 48 48 48 48 48 47 47 47 47 47 48 48 48 48 49 50 51 51 52 52 51 50 50 49 49 49 48 48 48 48 48 48 46 46
48 48 49 48 48 48 47 46 46 46 46 46 46 46 46 46 47 47 48 47 48 48 48 49 49 49 50 50 50 50 50 50 50 48 47 47 46 47 47 46 45 44
48 48 48 47 47 47 46 47 47 46 46 47 46 45 45 45 45 45 45 45 46 46 46 47 47 47 47 47 48 48 48 48 47 46 46 45 45 44 45 42 42 42
46 47 47 47 46 46 46 46 47 46 46 44 46 45 45 45 45 45 44 43 42 42 43 43 43 44 44 45 44 45 44 43 43 43 43 43 42 41 42 41 41 41
45 44 45 45 44 45 46 46 46 45 45 45 42 44 43 43 43 44 44 43 43 42 43 42 42 42 41 42 42 42 42 42 42 42 42 42 41 39 39 40 40 41
43 41 44 43 44 44 44 45 44 44 43 40 41 42 41 42 42 43 43 43 42 42 42 42 42 43 41 41 42 41 41 42 41 41 41 41 40 40 38 38 39 39
41 42 41 41 42 43 42 42 42 40 39 41 40 38 38 40 42 42 43 43 42 41 41 41 41 41 40 40 41 42 42 41 41 40 41 40 39 39 39 38 37 37
41 41 39 40 40 41 41 40 39 39 37 39 39 38 38 39 40 42 42 42 42 41 41 41 40 39 39 39 41 41 42 41 40 40 40 41 40 40 38 37 37 36
40 39 39 40 40 40 40 39 38 37 37 39 38 38 38 38 38 39 41 41 41 41 40 40 40 40 39 39 39 40 41 41 40 40 40 40 40 40 37 37 37 36
40 39 40 40 40 39 39 38 38 38 38 37 38 39 38 38 39 39 40 40 41 41 41 41 40 40 40 40 40 39 39 39 39 39 39 39 39 39 38 37 37 36
41 41 41 41 40 40 38 38 38 38 38 38 37 39 39 38 37 38 38 40 41 40 40 40 40 39 39 39 39 39 39 38 38 38 38 38 38 38 37 37 37 36
42 42 41 41 41 40 39 38 38 37 37 37 36 38 38 38 38 38 38 39 40 40 40 39 39 39 39 39 39 38 38 38 38 37 37 36 36 36 36 36 36 35
44 41 40 39 38 38 38 38 37 36 36 36 36 37 38 38 38 38 38 38 39 39 38 38 38 38 38 38 38 38 38 38 38 37 37 36 35 35 35 35 35 35
42 39 38 36 36 37 37 36 36 36 36 36 36 37 37 36 36 36 37 38 38 38 38 37 37 38 37 38 39 38 38 38 37 37 37 36 35 34 34 34 34 34
40 39 36 37 37 35 35 35 36 36 36 36 36 35 36 35 35 35 36 37 38 38 37 37 37 37 37 39 40 40 38 37 36 36 36 36 35 34 33 33 34 34
40 38 37 37 36 37 37 36 36 35 36 36 35 35 35 34 34 35 35 36 37 37 37 37 37 37 39 39 40 40 38 37 37 36 35 36 35 35 34 33 32 32
38 38 38 37 37 37 36 35 35 35 35 35 35 35 33 34 34 34 34 35 36 36 36 37 37 38 39 39 40 40 40 38 36 36 35 35 35 34 33 33 32 31
37 37 38 38 36 35 35 35 35 35 35 35 34 32 33 33 32 33 33 34 35 36 36 36 36 37 39 39 39 40 40 38 35 35 35 35 34 34 34 33 33 32
37 37 37 36 35 35 35 35 35 35 34 33 33 33 33 33 33 33 33 33 34 35 36 35 36 37 38 39 40 40 40 39 35 35 35 34 35 35 34 34 34 33
36 36 36 36 35 34 34 34 34 34 34 32 32 31 32 31 31 32 32 32 33 34 34 34 35 37 38 39 39 40 40 37 34 34 34 33 33 34 34 34 34 34
35 36 36 35 34 34 34 34 34 33 32 31 31 31 31 31 32 32 33 33 33 33 33 34 33 36 37 38 39 40 38 35 34 33 33 32 31 33 34 34 34 34
34 35 35 35 34 34 35 34 34 33 32 31 32 31 31 31 31 31 31 33 33 33 33 33 33 34 37 38 39 40 37 34 34 33 31 31 31 32 33 33 33 33
34 34 35 35 35 35 35 34 32 32 31 30 31 31 31 30 30 30 30 32 33 33 33 33 32 33 37 38 38 39 37 33 33 32 30 30 30 30 32 32 32 33
34 34 35 35 35 34 33 33 31 29 29 29 29 30 29 29 29 30 31 31 32 32 32 32 32 33 35 38 39 39 37 34 33 31 30 29 29 30 29 30 31 31
MSLP
1016.72 1016.84 1016.86 1017.04 1017.08 1017.22 1017.38 1017.64 1017.84 1017.98 1018.08 1018.28 1018.30 1018.30 1018.42 1018.44 1018.70 1018.84 1018.88 1019.00 1019.10 1019.20 1019.20 1019.16 1019.14 1019.06 1018.92 1019.02 1019.34 1019.78 1020.14 1020.42 1020.58 1020.56 1020.36 1020.60 1021.06 1021.44 1021.86 1022.18 1022.50 1022.62
1016.50 1016.62 1016.74 1016.88 1017.00 1017.16 1017.26 1017.38 1017.52 1017.64 1017.68 1017.78 1017.82 1017.94 1018.08 1018.28 1018.42 1018.60 1018.70 1018.76 1018.80 1018.82 1018.94 1019.00 1018.94 1018.88 1018.92 1018.80 1018.84 1019.36 1019.72 1019.98 1020.28 1020.44 1020.14 1020.32 1020.54 1021.00 1021.28 1021.58 1021.90 1022.08
1016.42 1016.54 1016.64 1016.64 1016.72 1016.86 1017.02 1017.22 1017.36 1017.44 1017.52 1017.54 1017.72 1017.82 1017.92 1018.08 1018.22 1018.38 1018.50 1018.58 1018.62 1018.62 1018.74 1018.84 1018.88 1018.78 1018.72 1018.72 1018.82 1018.94 1019.14 1019.38 1019.68 1019.94 1020.06 1019.96 1020.06 1020.50 1020.72 1021.08 1021.42 1021.62
1016.18 1016.28 1016.38 1016.48 1016.62 1016.68 1016.88 1017.06 1017.16 1017.26 1017.34 1017.42 1017.46 1017.62 1017.76 1017.92 1018.04 1018.16 1018.32 1018.40 1018.42 1018.46 1018.54 1018.62 1018.62 1018.68 1018.64 1018.62 1018.64 1018.66 1018.78 1018.98 1019.10 1019.48 1019.76 1019.86 1020.02 1020.22 1020.50 1020.82 1021.04 1021.28
1016.00 1016.18 1016.36 1016.44 1016.54 1016.66 1016.76 1016.80 1016.78 1016.92 1017.00 1016.96 1017.20 1017.40 1017.58 1017.74 1017.88 1018.00 1018.16 1018.28 1018.32 1018.28 1018.34 1018.40 1018.48 1018.46 1018.50 1018.56 1018.62 1018.68 1018.78 1018.88 1019.08 1019.32 1019.50 1019.62 1019.76 1020.06 1020.18 1020.58 1020.82 1021.02
1015.94 1016.12 1016.24 1016.36 1016.42 1016.56 1016.60 1016.50 1016.48 1016.60 1016.70 1016.88 1016.88 1017.10 1017.22 1017.36 1017.48 1017.62 1017.84 1018.04 1018.20 1018.24 1018.26 1018.30 1018.40 1018.42 1018.46 1018.48 1018.58 1018.56 1018.62 1018.78 1018.92 1019.14 1019.34 1019.54 1019.78 1020.06 1020.18 1020.40 1020.54 1020.70
1015.82 1016.06 1016.16 1016.30 1016.38 1016.42 1016.36 1016.26 1016.28 1016.34 1016.38 1016.46 1016.72 1016.78 1016.98 1017.12 1017.24 1017.34 1017.54 1017.74 1017.90 1018.02 1018.12 1018.18 1018.30 1018.38 1018.44 1018.46 1018.44 1018.38 1018.46 1018.56 1018.80 1018.98 1019.08 1019.28 1019.56 1019.94 1020.28 1020.36 1020.30 1020.26
1015.76 1015.92 1016.00 1016.12 1016.14 1016.14 1016.08 1016.02 1016.08 1016.14 1016.22 1016.42 1016.40 1016.50 1016.74 1016.84 1016.98 1017.14 1017.32 1017.60 1017.72 1017.68 1017.88 1018.02 1018.10 1018.12 1018.24 1018.34 1018.30 1018.32 1018.36 1018.56 1018.66 1018.84 1018.96 1019.12 1019.42 1019.60 1019.98 1020.30 1020.34 1020.30
1015.66 1015.70 1015.82 1015.86 1015.86 1015.80 1015.78 1015.78 1015.90 1016.04 1016.20 1016.20 1016.24 1016.40 1016.60 1016.62 1016.76 1016.90 1017.08 1017.32 1017.54 1017.56 1017.64 1017.84 1017.92 1018.00 1018.08 1018.16 1018.12 1018.10 1018.12 1018.30 1018.42 1018.56 1018.68 1018.86 1019.16 1019.26 1019.56 1019.98 1020.26 1020.30
1015.30 1015.42 1015.60 1015.62 1015.62 1015.50 1015.54 1015.58 1015.82 1015.94 1016.14 1016.16 1016.16 1016.34 1016.36 1016.54 1016.60 1016.66 1016.86 1017.08 1017.26 1017.40 1017.48 1017.64 1017.82 1017.92 1018.00 1018.02 1017.90 1017.90 1017.92 1017.98 1018.20 1018.34 1018.40 1018.52 1018.70 1018.96 1019.34 1019.76 1019.88 1020.20
1014.80 1015.08 1015.22 1015.26 1015.20 1015.30 1015.30 1015.46 1015.64 1015.80 1016.00 1015.98 1016.10 1016.16 1016.22 1016.36 1016.46 1016.54 1016.66 1016.88 1017.04 1017.12 1017.24 1017.42 1017.54 1017.70 1017.76 1017.82 1017.80 1017.78 1017.74 1017.74 1017.88 1018.04 1018.14 1018.24 1018.38 1018.58 1018.94 1019.34 1019.64 1019.74
1014.18 1014.54 1014.64 1014.66 1014.78 1014.96 1015.00 1015.22 1015.40 1015.50 1015.60 1015.78 1015.86 1015.84 1016.04 1016.12 1016.10 1016.28 1016.36 1016.54 1016.74 1016.86 1016.90 1017.04 1017.24 1017.38 1017.44 1017.46 1017.54 1017.60 1017.64 1017.64 1017.68 1017.82 1017.96 1018.10 1018.26 1018.46 1018.78 1019.08 1019.28 1019.58
1013.92 1013.54 1013.28 1013.62 1014.08 1014.30 1014.64 1014.90 1014.98 1015.10 1015.26 1015.30 1015.60 1015.64 1015.68 1015.80 1015.94 1015.92 1016.04 1016.16 1016.34 1016.56 1016.68 1016.82 1017.00 1017.16 1017.28 1017.36 1017.44 1017.52 1017.56 1017.60 1017.70 1017.84 1018.00 1018.16 1018.22 1018.32 1018.58 1018.90 1019.14 1019.46
1013.18 1013.28 1013.42 1013.14 1012.98 1013.34 1013.84 1014.20 1014.50 1014.74 1014.88 1015.10 1015.38 1015.40 1015.42 1015.52 1015.58 1015.66 1015.76 1015.92 1016.00 1016.20 1016.36 1016.56 1016.72 1016.92 1017.08 1017.22 1017.36 1017.44 1017.50 1017.56 1017.66 1017.78 1017.98 1018.12 1018.22 1018.36 1018.54 1018.76 1019.00 1019.30
1012.52 1012.80 1013.04 1013.28 1013.64 1013.80 1013.72 1013.78 1014.06 1014.40 1014.72 1014.90 1015.04 1015.08 1015.20 1015.26 1015.38 1015.48 1015.58 1015.72 1015.82 1015.96 1016.16 1016.36 1016.50 1016.58 1016.76 1016.94 1017.14 1017.28 1017.32 1017.40 1017.52 1017.68 1017.80 1017.96 1018.20 1018.46 1018.66 1018.84 1019.08 1019.34
1012.62 1012.96 1013.20 1013.56 1013.76 1013.70 1013.82 1014.02 1014.18 1014.34 1014.52 1014.64 1014.72 1014.82 1014.94 1015.12 1015.30 1015.40 1015.40 1015.38 1015.58 1015.80 1015.96 1016.14 1016.24 1016.32 1016.44 1016.60 1016.72 1016.84 1017.00 1017.12 1017.34 1017.50 1017.64 1017.84 1018.20 1018.54 1018.80 1018.98 1019.18 1019.40
1012.50 1012.52 1012.90 1013.12 1013.32 1013.70 1013.90 1014.04 1014.08 1014.22 1014.34 1014.40 1014.50 1014.66 1014.76 1014.96 1015.16 1015.20 1015.28 1015.36 1015.36 1015.54 1015.76 1015.90 1016.00 1016.08 1016.20 1016.38 1016.52 1016.66 1016.86 1017.00 1017.16 1017.34 1017.50 1017.74 1018.04 1018.26 1018.58 1018.90 1019.20 1019.44
1012.28 1012.40 1012.50 1012.56 1012.88 1012.92 1013.12 1013.38 1013.70 1013.94 1014.00 1014.06 1014.24 1014.42 1014.56 1014.86 1014.96 1014.90 1015.04 1015.16 1015.26 1015.34 1015.44 1015.58 1015.72 1015.82 1015.98 1016.16 1016.34 1016.46 1016.60 1016.74 1016.92 1017.12 1017.36 1017.58 1017.82 1018.04 1018.32 1018.70 1019.08 1019.42
1012.32 1012.40 1012.36 1012.40 1012.40 1012.50 1012.84 1013.22 1013.40 1013.56 1013.64 1013.76 1013.82 1014.04 1014.48 1014.58 1014.54 1014.74 1014.78 1014.92 1015.02 1015.10 1015.20 1015.30 1015.42 1015.50 1015.72 1015.92 1016.06 1016.18 1016.34 1016.54 1016.72 1016.88 1017.16 1017.40 1017.66 1017.90 1018.20 1018.56 1018.98 1019.34
1012.12 1012.18 1012.14 1012.20 1012.52 1012.84 1013.06 1013.18 1013.34 1013.20 1013.28 1013.52 1013.78 1014.14 1014.26 1014.38 1014.52 1014.54 1014.60 1014.68 1014.72 1014.80 1014.88 1014.98 1015.10 1015.22 1015.42 1015.62 1015.78 1015.94 1016.10 1016.32 1016.56 1016.76 1017.00 1017.24 1017.48 1017.78 1018.06 1018.36 1018.72 1019.04
1012.00 1012.08 1012.12 1012.24 1012.48 1012.70 1012.90 1013.02 1013.12 1013.28 1013.46 1013.62 1013.78 1013.86 1013.98 1014.00 1014.06 1014.18 1014.26 1014.36 1014.48 1014.54 1014.60 1014.68 1014.78 1014.92 1015.14 1015.32 1015.50 1015.72 1015.90 1016.18 1016.50 1016.74 1016.96 1017.18 1017.38 1017.62 1017.82 1018.12 1018.52 1018.88
1012.02 1011.96 1011.98 1012.08 1012.22 1012.44 1012.62 1012.68 1012.82 1012.92 1012.98 1013.30 1013.56 1013.76 1013.90 1013.98 1014.06 1014.10 1014.12 1014.24 1014.34 1014.46 1014.52 1014.54 1014.62 1014.72 1014.86 1015.04 1015.28 1015.50 1015.74 1016.10 1016.42 1016.64 1016.86 1017.12 1017.36 1017.56 1017.78 1018.04 1018.32 1018.62
1011.96 1011.90 1011.84 1011.94 1012.06 1012.18 1012.24 1012.32 1012.44 1012.60 1012.76 1013.10 1013.24 1013.40 1013.54 1013.68 1013.68 1013.76 1013.88 1014.04 1014.20 1014.32 1014.38 1014.42 1014.54 1014.62 1014.74 1014.88 1015.06 1015.26 1015.56 1016.00 1016.32 1016.54 1016.78 1017.02 1017.22 1017.42 1017.66 1017.92 1018.18 1018.42
1011.76 1011.78 1011.70 1011.74 1011.90 1011.80 1011.76 1011.92 1012.12 1012.34 1012.50 1012.82 1012.76 1012.98 1013.22 1013.28 1013.44 1013.64 1013.76 1013.86 1013.98 1014.12 1014.16 1014.26 1014.42 1014.50 1014.60 1014.70 1014.84 1015.02 1015.30 1015.82 1016.18 1016.44 1016.76 1017.04 1017.32 1017.48 1017.62 1017.84 1018.04 1018.24
1011.46 1011.52 1011.50 1011.50 1011.54 1011.54 1011.72 1011.82 1012.00 1012.12 1012.32 1012.68 1012.68 1012.78 1012.90 1013.18 1013.40 1013.52 1013.66 1013.78 1013.86 1013.96 1014.06 1014.16 1014.32 1014.42 1014.44 1014.54 1014.66 1014.82 1015.18 1015.72 1016.12 1016.50 1016.90 1017.20 1017.38 1017.62 1017.78 1017.90 1018.12 1018.32
1011.36 1011.30 1011.24 1011.26 1011.18 1011.34 1011.62 1011.72 1011.98 1012.30 1012.46 1012.64 1012.74 1012.80 1012.94 1013.14 1013.28 1013.38 1013.48 1013.62 1013.78 1013.92 1014.00 1014.04 1014.18 1014.24 1014.22 1014.22 1014.38 1014.58 1014.92 1015.44 1015.86 1016.26 1016.68 1017.08 1017.34 1017.54 1017.92 1018.22 1018.42 1018.76
Wind_Speed
9 8 10 9 10 8 8 8 7 8 7 7 8 8 9 8 7 8 9 8 9 8 8 7 6 7 9 9 7 7 6 8 8 9 12 12 12 13 13 13 12 11
9 9 8 7 7 6 6 7 8 9 9 9 8 7 7 6 7 8 8 9 8 9 8 7 7 7 7 7 9 9 9 9 11 8 10 13 12 13 14 14 13 12
8 8 9 10 10 9 8 7 7 8 8 8 7 7 7 6 7 7 8 8 8 8 8 8 8 7 7 7 7 9 9 10 11 10 9 12 12 12 13 13 11 12
9 9 9 9 8 8 7 7 7 7 6 7 7 7 7 7 7 8 8 9 9 8 8 8 9 7 7 7 7 7 9 10 10 9 9 7 8 11 11 9 10 9
9 8 7 7 6 6 6 8 9 8 8 8 6 6 7 7 7 7 7 7 7 7 7 9 8 8 7 6 6 7 8 8 7 7 8 9 9 9 10 9 9 10
6 6 6 7 7 7 8 9 9 8 8 7 8 6 7 8 8 8 8 8 7 7 7 7 7 7 7 7 6 7 6 7 6 7 7 8 7 6 6 8 9 10
7 6 7 6 6 7 8 9 8 7 7 7 5 7 7 8 8 8 8 9 8 9 8 8 8 8 7 6 7 7 7 7 6 7 8 8 7 7 5 7 9 11
6 5 6 6 8 8 9 9 8 7 7 5 7 7 7 8 8 8 7 8 8 8 8 8 8 9 7 7 8 8 7 6 7 8 8 8 7 8 7 6 6 7
6 7 6 7 9 9 9 9 7 6 5 7 7 6 6 7 8 8 8 8 8 8 8 8 8 8 7 8 9 9 9 8 7 8 9 9 9 9 9 7 7 7
8 7 7 8 9 9 9 8 7 6 5 7 6 5 7 7 6 7 7 8 8 8 7 7 8 7 7 8 9 9 9 9 8 9 9 9 9 9 8 8 9 8
9 7 8 9 11 8 9 7 7 6 6 7 6 7 6 6 6 5 6 7 8 8 8 8 8 8 9 9 8 8 9 9 9 9 9 9 9 9 9 10 9 10
10 8 10 11 11 9 10 8 7 7 8 7 7 8 7 7 8 7 8 8 8 8 8 9 8 9 9 10 9 8 8 7 7 8 8 8 8 8 9 9 10 9
11 12 13 13 12 11 8 8 9 8 8 9 7 8 8 8 7 8 7 8 9 8 8 8 8 8 8 8 8 7 8 7 7 7 7 7 7 8 8 8 8 9
13 12 10 11 11 10 10 10 9 8 8 7 6 9 9 9 9 9 8 8 8 8 8 8 7 7 7 7 7 7 7 7 7 8 8 7 6 6 7 8 9 9
12 9 7 7 6 6 8 9 9 7 7 7 8 8 8 8 8 8 8 8 7 7 7 7 7 8 7 7 8 8 8 8 8 8 8 8 6 6 6 7 7 8
7 5 5 4 5 7 6 5 5 7 8 8 9 9 8 7 7 7 8 9 8 8 7 6 7 6 8 12 11 8 8 7 7 8 7 7 7 7 6 6 7 7
6 7 5 6 7 5 5 6 7 7 8 8 9 8 8 7 7 8 8 7 8 8 8 7 6 6 11 11 13 12 8 7 8 7 7 7 8 9 9 8 7 7
8 6 7 8 7 9 9 9 7 8 9 9 8 9 8 6 8 9 7 7 7 7 8 8 7 8 11 13 13 13 10 8 7 6 7 7 8 8 8 8 8 8
6 7 8 7 9 9 7 7 8 9 9 9 11 8 5 9 9 7 8 7 8 9 8 8 7 9 11 12 14 13 13 10 6 7 7 7 8 8 9 9 9 9
7 7 8 8 5 5 5 6 8 10 9 7 6 5 8 8 6 8 7 8 8 9 9 8 8 9 12 13 14 15 13 10 6 7 7 8 9 9 8 9 10 10
6 6 7 6 5 5 6 7 8 6 6 6 7 8 9 10 10 10 9 8 8 8 8 8 7 10 13 14 14 15 13 11 5 6 6 6 7 8 9 10 10 9
5 7 7 6 6 6 7 8 8 8 9 7 7 7 6 5 5 6 8 8 7 7 7 8 6 10 12 14 14 14 15 8 6 7 7 6 6 8 8 9 10 10
6 7 7 7 6 7 9 9 9 9 8 6 8 8 8 8 9 8 7 8 8 7 8 7 5 9 13 14 15 16 12 7 7 7 7 7 7 8 8 9 9 10
6 6 7 7 7 9 10 9 8 6 7 7 9 9 9 9 7 7 6 6 8 8 8 7 6 8 13 14 15 16 12 8 7 7 6 6 6 6 7 8 10 15
6 6 7 7 8 9 8 8 8 9 6 6 7 6 7 6 6 6 5 5 6 7 7 8 5 6 12 15 15 16 12 7 7 6 7 6 7 6 6 7 8 11
6 7 7 8 9 7 6 7 5 4 5 6 6 6 6 6 6 6 7 6 5 6 6 7 6 5 7 14 16 16 13 9 7 8 8 8 7 8 7 5 7 7
Wind_Direction
207 204 212 212 218 216 212 211 212 216 217 214 217 218 215 217 207 210 216 213 216 226 232 228 222 221 204 190 190 196 203 220 222 208 200 194 204 205 207 206 204 202
212 210 214 217 222 217 220 211 213 211 218 214 218 216 215 202 209 204 211 215 215 222 226 231 225 216 216 205 188 192 197 200 212 215 203 196 205 204 210 208 207 208
214 212 212 213 216 216 215 213 212 217 219 221 219 216 213 204 205 206 211 214 217 223 224 227 227 223 215 209 201 197 199 200 208 209 210 207 204 203 209 208 208 206
218 215 215 219 217 218 213 212 219 219 220 222 216 211 205 205 202 206 213 213 218 221 224 225 226 224 221 216 208 210 209 211 213 202 207 209 209 208 211 207 209 206
216 219 221 222 222 220 212 215 219 216 216 219 212 203 203 202 204 207 209 217 220 223 221 225 225 224 219 221 214 218 215 217 210 198 204 209 209 202 208 194 199 205
229 224 223 221 217 213 217 221 221 215 217 216 213 200 205 201 203 203 202 209 216 220 224 224 225 228 215 212 204 215 208 209 203 187 198 209 211 210 197 196 197 203
228 221 227 222 227 221 226 228 224 218 216 214 198 209 195 202 204 203 203 206 208 213 218 219 219 223 220 211 210 212 210 205 195 192 197 205 194 202 207 200 202 202
231 228 223 223 225 225 228 229 224 219 213 203 209 210 193 202 204 201 201 205 212 209 213 219 220 222 215 209 212 213 211 202 196 194 199 202 191 199 196 204 203 199
230 230 221 226 227 229 231 228 225 222 209 209 212 208 206 201 200 198 198 202 211 213 208 215 217 218 212 207 215 212 208 206 200 195 197 196 195 200 194 188 189 193
228 227 224 227 229 231 232 227 220 221 210 218 213 202 203 208 200 196 195 200 208 211 208 210 214 216 213 212 214 211 211 208 202 201 201 200 199 194 185 181 189 180
227 218 225 228 232 230 231 222 219 216 214 216 208 213 209 198 204 192 194 199 208 209 206 209 211 208 211 213 216 212 210 207 204 204 203 201 198 194 186 184 182 185
221 213 222 228 229 229 226 216 212 211 212 217 205 211 208 206 197 195 194 202 209 211 207 210 209 209 212 212 210 208 210 208 204 202 206 203 197 190 184 184 182 178
231 222 213 213 217 221 214 211 213 211 206 212 203 207 206 206 206 200 201 200 208 206 209 207 209 209 213 213 211 207 205 203 201 201 201 202 197 188 180 179 176 169
231 230 232 229 218 202 202 207 208 207 208 205 197 209 209 206 203 201 204 200 204 205 208 205 206 209 210 210 208 205 203 205 199 198 197 196 190 181 175 177 175 172
237 231 228 232 229 226 215 208 204 200 198 200 203 212 209 210 205 201 198 205 205 203 204 201 206 207 201 199 200 203 201 201 200 198 194 187 180 175 173 171 171 173
249 256 249 252 234 228 227 215 200 198 198 204 209 209 209 204 203 206 207 202 200 206 204 202 209 207 203 203 203 199 196 197 194 196 188 179 172 170 168 171 172 170
241 234 213 217 217 224 218 206 207 202 204 210 211 207 207 202 198 207 210 207 203 200 205 208 210 207 205 204 204 196 191 190 189 191 184 177 178 174 175 171 166 164
242 231 217 222 207 216 207 207 200 199 207 209 207 208 208 191 204 208 203 204 204 205 207 207 209 207 205 206 203 194 186 188 187 184 182 182 181 178 172 167 163 158
243 234 236 230 223 217 206 196 200 205 210 207 210 204 184 200 209 199 206 202 202 204 209 205 210 203 200 198 201 196 188 187 186 182 179 184 179 176 168 166 161 157
237 234 237 237 231 220 206 208 207 215 213 208 197 186 198 205 203 205 203 203 202 204 206 205 208 203 197 198 203 201 189 180 187 180 184 181 179 174 171 168 166 163
241 239 242 241 223 212 210 215 216 219 208 201 196 196 196 200 199 202 205 202 204 204 205 205 209 196 196 200 202 199 189 180 178 178 178 181 179 176 173 169 166 165
241 243 240 234 220 212 212 217 212 207 205 195 195 205 213 209 218 206 204 205 205 201 200 209 205 191 194 198 199 199 189 182 176 179 179 176 175 174 171 168 165 162
238 238 240 231 217 213 217 216 210 209 206 182 193 198 197 200 204 202 202 200 198 199 199 209 209 198 197 198 199 196 182 178 176 177 175 173 174 169 167 163 165 163
239 231 237 231 217 220 219 218 213 208 200 186 195 192 201 203 197 197 198 198 196 199 196 198 208 199 198 200 197 196 182 177 175 172 168 163 158 161 159 161 165 166
240 232 232 229 226 227 219 215 206 204 194 186 201 193 201 184 186 189 193 195 200 198 193 194 197 201 199 201 198 199 182 166 165 160 157 162 158 153 155 157 160 164
242 237 235 227 231 227 217 216 197 184 183 186 197 188 185 178 184 186 187 195 186 188 192 189 188 199 197 199 200 197 165 163 164 163 168 162 160 154 148 150 147 148